Home > Weather > Lohmar > Past weeks

Flag for Germany Past Weather in Lohmar, North Rhine-Westphalia, Germany — Yesterday and Last 2 Weeks

Now
68 °F

Partly sunny.


Feels Like: 68 °F
Forecast: 57 / 72 °F
Wind: 9 mph from South

Location: Koeln / Bonn

Current Time: Jun 30, 2016 at 2:23:43 PM

Latest Report: Jun 30, 2016 at 1:50 PM


Visibility: N/A

Pressure: 29.92 "Hg

Humidity: 64%

Dew Point: 55 °F

Location of LohmarLocation

Past Weather in Lohmar — Graph

°F

Lohmar Temperature Yesterday

Maximum temperature yesterday: 73 °F (at 6:20 PM)
Minimum temperature yesterday: 61 °F (at 1:50 AM)
Average temperature yesterday: 65 °F

High & Low Weather Summary for the Past Weeks

 TemperatureHumidityPressure
High91 °F (Jun 23, 3:20 PM)100% (Jun 16, 12:50 AM)30.27 "Hg (Jun 16, 12:50 AM)
Low45 °F (Jun 16, 2:50 AM)41% (Jun 23, 5:20 PM)29.50 "Hg (Jun 15, 1:20 PM)
Average63 °F80%29.99 "Hg
* Reported Jun 15 1:20 PM — Jun 30 1:20 PM, Lohmar, Weather by CustomWeather, © 2016

Note: Actual official high and low records may vary slightly from our data, if they occured in-between our weather recording intervals... More about our weather records

Advertising

Lohmar Weather History for the Previous 24 Hours

Scroll right to see more
 ConditionsComfort  
Time TempWeatherWind HumidityBarometerVisibility
1:20 PM
Thu, Jun 30
70 °FPartly sunny.6 mph60%29.92 "HgN/A
12:50 PM68 °FPartly sunny.10 mph64%29.92 "HgN/A
12:20 PM66 °FPartly sunny.7 mph68%29.92 "HgN/A
11:50 AM66 °FPartly sunny.10 mph68%29.92 "HgN/A
11:20 AM66 °FPartly sunny.10 mph68%29.92 "HgN/A
10:50 AM64 °FPartly sunny.6 mph73%29.92 "HgN/A
10:20 AM64 °FPartly sunny.7 mph73%29.92 "HgN/A
9:50 AM64 °FPartly sunny.6 mph78%29.92 "HgN/A
9:20 AM63 °FPartly sunny.6 mph83%29.92 "HgN/A
8:50 AM63 °FPartly sunny.5 mph77%29.92 "HgN/A
8:20 AM61 °FLight rain. Partly sunny.5 mph88%29.92 "HgN/A
7:50 AM61 °FLight rain. Broken clouds.7 mph83%29.92 "HgN/A
7:20 AM59 °FLight rain. Broken clouds.6 mph88%29.89 "HgN/A
6:50 AM59 °FDrizzle. Broken clouds.6 mph88%29.89 "HgN/A
6:20 AM59 °FLight rain. Passing clouds.5 mph94%29.89 "HgN/A
5:50 AM59 °FLight rain. Passing clouds.3 mph88%29.89 "HgN/A
5:20 AM61 °FLight rain. Passing clouds.5 mph83%29.89 "HgN/A
4:50 AM61 °FLight rain. Partly cloudy.7 mph83%29.89 "HgN/A
4:20 AM61 °FLight rain. Partly cloudy.6 mph83%29.89 "HgN/A
3:50 AM59 °FLight rain. Passing clouds.2 mph94%29.89 "HgN/A
3:20 AM59 °FLight rain. Passing clouds.3 mph94%29.86 "HgN/A
2:50 AM59 °FLight rain. Partly cloudy.3 mph94%29.89 "HgN/A
2:20 AM59 °FLight rain. Passing clouds.5 mph94%29.86 "HgN/A
1:50 AM61 °FLight rain. Mostly cloudy.12 mph83%29.89 "HgN/A
1:20 AM61 °FLight rain. Passing clouds.5 mph83%29.86 "HgN/A
12:50 AM64 °FLight rain. Clear.8 mph64%29.89 "HgN/A
12:20 AM63 °FClear.8 mph68%29.89 "Hg10 mi
11:50 PM
Wed, Jun 29
63 °FClear.8 mph68%29.89 "Hg10 mi
11:20 PM64 °FClear.5 mph64%29.89 "Hg10 mi
10:50 PM64 °FClear.5 mph64%29.89 "Hg10 mi
10:20 PM63 °FPassing clouds.3 mph68%29.89 "HgN/A
9:50 PM63 °FSunny.2 mph83%29.89 "Hg10 mi
9:20 PM66 °FPartly sunny.2 mph64%29.89 "HgN/A
8:50 PM66 °FBroken clouds.3 mph60%29.89 "HgN/A
8:20 PM68 °FBroken clouds.3 mph49%29.89 "HgN/A
7:50 PM70 °FPassing clouds.6 mph46%29.89 "HgN/A
7:20 PM70 °FSunny.7 mph46%29.89 "Hg10 mi
6:50 PM72 °FPassing clouds.7 mph44%29.89 "HgN/A
6:20 PM73 °FPassing clouds.9 mph41%29.89 "HgN/A
5:50 PM72 °FPassing clouds.7 mph44%29.89 "HgN/A
5:20 PM72 °FPassing clouds.9 mph44%29.92 "HgN/A
4:50 PM70 °FPassing clouds.10 mph46%29.92 "HgN/A
4:20 PM72 °FPartly sunny.12 mph41%29.92 "HgN/A
3:20 PM70 °FScattered clouds.12 mph50%29.92 "HgN/A
2:50 PM70 °FPartly sunny.10 mph50%29.95 "HgN/A
2:20 PM68 °FPartly sunny.10 mph53%29.95 "HgN/A
Weather by CustomWeather, © 2016

See weather overviewHow to use our weather pages